Home   Weather   Oldham   Past weeks

Flag for United Kingdom Past Weather in Oldham, England, United Kingdom — Yesterday and Last 2 Weeks

54 °F

Passing clouds.

Feels Like: 53 °F
Forecast: 47 / 56 °F
Wind: 5 mph from Southeast

Location: Manchester Airport

Current Time: Oct 25, 2016 at 1:11:12 PM

Latest Report: Oct 25, 2016 at 12:20 PM

Visibility: N/A

Pressure: 30.21 "Hg

Humidity: 82%

Dew Point: 48 °F

Location of OldhamLocation

Past Weather in Oldham — Graph


Oldham Temperature Yesterday

Maximum temperature yesterday: 54 °F (at 2:20 PM)
Minimum temperature yesterday: 43 °F (at 4:20 AM)
Average temperature yesterday: 48 °F

High & Low Weather Summary for the Past Weeks

High59 °F (Oct 12, 12:20 PM)100% (Oct 11, 2:50 AM)30.36 "Hg (Oct 11, 2:50 AM)
Low36 °F (Oct 23, 2:20 AM)58% (Oct 10, 2:50 PM)29.62 "Hg (Oct 15, 6:20 AM)
Average50 °F84%30.03 "Hg
* Reported Oct 10 11:20 AM — Oct 25 11:50 AM, Oldham, Weather by CustomWeather, © 2016

Note: Actual official high and low records may vary slightly from our data, if they occured in-between our weather recording intervals... More about our weather records


Oldham Weather History for the Previous 24 Hours

Scroll right to see more
Time TempWeatherWind HumidityBarometerVisibility
11:50 AM
Tue, Oct 25
52 °FPassing clouds.5 mph82%30.21 "HgN/A
11:20 AM50 °FPassing clouds.5 mph88%30.21 "HgN/A
10:50 AM50 °FSunny.6 mph88%30.21 "Hg10 mi
10:20 AM50 °FSunny.6 mph88%30.21 "Hg10 mi
9:50 AM46 °FPassing clouds.6 mph93%30.21 "HgN/A
9:20 AM43 °FPassing clouds.5 mph93%30.18 "HgN/A
8:50 AM43 °FPassing clouds.5 mph93%30.18 "HgN/A
8:20 AM41 °FPassing clouds.6 mph93%30.18 "HgN/A
7:50 AM43 °FPassing clouds.7 mph93%30.18 "HgN/A
7:20 AM43 °FClear.7 mph93%30.15 "Hg10 mi
6:50 AM41 °FClear.10 mph93%30.15 "Hg10 mi
6:20 AM39 °FClear.8 mph100%30.15 "Hg10 mi
5:50 AM41 °FClear.5 mph100%30.15 "Hg10 mi
5:20 AM41 °FClear.No wind93%30.12 "Hg5 mi
4:50 AM41 °FClear.2 mph93%30.12 "Hg6 mi
4:20 AM41 °FClear.6 mph100%30.12 "Hg5 mi
3:50 AM43 °FClear.5 mph93%30.12 "Hg5 mi
3:20 AM43 °FClear.5 mph93%30.12 "Hg5 mi
2:50 AM43 °FClear.2 mph93%30.12 "Hg5 mi
2:20 AM45 °FClear.3 mph93%30.12 "Hg5 mi
1:50 AM46 °FClear.5 mph87%30.12 "Hg4 mi
1:20 AM46 °FClear.6 mph93%30.09 "Hg10 mi
12:50 AM46 °FClear.5 mph93%30.09 "Hg10 mi
12:20 AM46 °FClear.5 mph87%30.09 "Hg10 mi
11:50 PM
Mon, Oct 24
48 °FClear.6 mph87%30.09 "Hg10 mi
11:20 PM48 °FClear.5 mph87%30.07 "Hg10 mi
10:50 PM48 °FClear.3 mph87%30.07 "Hg10 mi
10:20 PM48 °FClear.6 mph87%30.07 "Hg10 mi
9:50 PM50 °FClear.8 mph82%30.07 "Hg10 mi
9:20 PM48 °FClear.7 mph87%30.04 "Hg10 mi
8:50 PM50 °FCool.9 mph82%30.04 "HgN/A
8:20 PM50 °FClear.9 mph82%30.04 "Hg10 mi
7:50 PM50 °FClear.9 mph82%30.04 "Hg10 mi
7:20 PM50 °FCool.9 mph82%30.04 "HgN/A
6:50 PM48 °FClear.8 mph82%30.01 "Hg10 mi
6:20 PM48 °FClear.7 mph82%30.01 "Hg10 mi
5:50 PM50 °FSunny.8 mph82%30.01 "Hg10 mi
5:20 PM52 °FPassing clouds.10 mph72%30.01 "HgN/A
4:20 PM52 °FPartly sunny.7 mph72%29.98 "HgN/A
3:50 PM52 °FBroken clouds.8 mph72%29.98 "HgN/A
3:20 PM52 °FPartly sunny.9 mph72%29.98 "HgN/A
2:50 PM52 °FPartly sunny.8 mph72%29.98 "HgN/A
2:20 PM54 °FPassing clouds.10 mph72%29.98 "HgN/A
1:50 PM52 °FPassing clouds.12 mph77%29.98 "HgN/A
1:20 PM52 °FSunny.8 mph77%29.98 "Hg10 mi
Weather by CustomWeather, © 2016

See weather overviewHow to use our weather pages